Location: Unspecified
(0.0000°N, 0.0000°E)
Time: 03:57:38
(UTC+00:00)

Transit 2A - Pass Details

Date: 01 June 2019
Orbit: 593 x 966 km, 66.7° (Epoch: 26 June)

Event Time Altitude Azimuth Distance (km) Brightness Sun altitude
Rises 03:31:50 0° 193° (SSW) 3,289 - -33.5°
Reaches altitude 10° 03:34:11 10° 189° (S) 2,413 - -32.9°
Maximum altitude 03:39:44 62° 109° (ESE) 985 - -31.7°
Exits shadow 03:39:55 61° 99° (E) 990 6.6 -31.6°
Drops below altitude 10° 03:45:46 10° 29° (NNE) 2,622 9.4 -30.3°
Sets 03:48:24 0° 26° (NNE) 3,595 10.2 -29.7°
